ARIRANG-3 (KOMPSAT-3)

Last updated on Thu Jul 03 2025 00:02:29 GMT+0000 (Coordinated Universal Time)

1 38338U 12025B 25183.60131633 .00000360 00000+0 82343-4 0 9999 2 38338 98.3070 137.2571 0007114 109.9385 250.2582 14.61442188700277
UTC large
Height (km)
Speed (km/s)
/
Latitude / Longitude
Inclination (degrees)
Orbital Period (minutes)
Azimuth
Elevation
Range (km)
Doppler Factor

Next 0 passes for location: London (51.5072 / 0.1276)

Sorry there are no passes over London.